SCP
0 0 0 0 0 0 0 0 0 0 0 0 0 0 0 0 0 0 0 0 0 0 0 0 0 0 0 0 0 0 0 0 0 0 0 0 0 0 0 0 0 0 0 0
0 0 0 0 0 0 0 0 0 0 0 0 0 0 0 0 0 0 0 0 0 0 0 0 0 0 0 0 0 0 0 0 0 0 0 0 0 0 0 0 0 0 0 0
0 0 0 0 0 0 0 0 0 0 0 0 0 0 0 0 0 0 0 0 0 0 0 0 0 0 0 0 0 0 0 0 0 0 0 0 0 0 0 0 0 0 0 0
0 0 0 0 0 0 0 0 0 0 0 0 0 0 0 0 0 0 0 0 0 0 0 0 0 0 0 0 0 0 0 0 0 0 0 0 0 0 0 0 0 0 0 0
0 0 0 0 0 0 0 0 0 0 0 0 0 0 0 0 0 0 0 0 0 0 0 0 0 0 0 0 0 0 0 0 0 0 0 0 0 0 0 0 0 0 0 0
0 0 0 0 0 0 0 0 0 0 0 0 0 0 0 0 0 0 0 0 0 0 0 0 0 0 0 0 0 0 0 0 0 0 0 0 0 0 0 0 0 0 0 0
0 0 0 0 0 0 0 0 0 0 0 0 0 0 0 0 0 0 0 0 0 0 0 0 0 0 0 0 0 0 0 0 0 0 0 0 0 0 0 0 0 0 0 0
0 0 0 0 0 0 0 0 0 0 0 0 0 0 0 0 0 0 0 0 0 0 0 0 0 0 0 0 0 0 0 0 0 0 0 0 0 0 0 0 0 0 0 0
0 0 0 0 0 0 0 0 0 0 0 0 0 0 0 0 0 0 0 0 0 0 0 0 0 0 0 0 0 0 0 0 0 0 0 0 0 0 0 0 0 0 0 0
0 0 0 0 0 0 0 0 0 0 0 0 0 0 0 0 0 0 0 0 0 0 0 0 0 0 0 0 0 0 0 0 0 0 0 0 0 0 0 0 0 0 0 0
0 0 0 0 0 0 0 0 0 0 0 0 0 0 0 0 0 0 0 0 0 0 0 0 0 0 0 0 0 0 0 0 0 0 0 0 0 0 0 0 0 0 0 0
0 0 0 0 0 0 0 0 0 0 0 0 0 0 0 0 0 0 0 0 0 0 0 0 0 0 0 0 0 0 0 0 0 0 0 0 0 0 0 0 0 0 0 0
0 0 0 0 0 0 0 0 0 0 0 0 0 0 0 0 0 0 0 0 0 0 0 0 0 0 0 0 0 0 0 0 0 0 0 0 0 0 0 0 0 0 0 0
0 0 0 0 0 0 0 0 0 0 0 0 0 0 0 0 0 0 0 0 0 0 0 0 0 0 0 0 0 0 0 0 0 0 0 0 0 0 0 0 0 0 0 0
0 0 0 0 0 0 0 0 0 0 0 0 0 0 0 0 0 0 0 0 0 0 0 0 0 0 0 0 0 0 0 0 0 0 0 0 0 0 0 0 0 0 0 0
0 0 0 0 0 0 0 0 0 0 0 0 0 0 0 0 0 0 0 0 0 0 0 0 0 0 0 0 0 0 0 0 0 0 0 0 0 0 0 0 0 0 0 0
0 0 0 0 0 0 0 0 0 0 0 0 0 0 0 0 0 0 0 0 0 0 0 0 0 0 0 0 0 0 0 0 0 0 0 0 0 0 0 0 0 0 0 0
0 0 0 0 0 0 0 0 0 0 0 0 0 0 0 0 0 0 0 0 0 0 0 0 0 0 0 0 0 0 0 0 0 0 0 0 0 0 0 0 0 0 0 0
0 0 0 0 0 0 0 0 0 0 0 0 0 0 0 0 0 0 0 0 0 0 0 0 0 0 0 0 0 0 0 0 0 0 0 0 0 0 0 0 0 0 0 0
0 0 0 0 0 0 0 0 0 0 0 0 0 0 0 0 0 0 0 0 0 0 0 0 0 0 0 0 0 0 0 0 0 0 0 0 0 0 0 0 0 0 0 0
0 0 0 0 0 0 0 0 0 0 0 0 0 0 0 0 0 0 0 0 0 0 0 0 0 0 0 0 0 0 0 0 0 0 0 0 0 0 0 0 0 0 0 0
0 0 0 0 0 0 0 0 0 0 0 0 0 0 0 0 0 0 0 0 0 0 0 0 0 0 0 0 0 0 0 0 0 0 0 0 0 0 0 0 0 0 0 0
0 0 0 0 0 0 0 0 0 0 0 0 0 0 0 0 0 0 0 0 0 0 0 0 0 0 0 0 0 0 0 0 0 0 0 0 0 0 0 0 0 0 0 0
0 0 0 0 0 0 0 0 0 0 0 0 0 0 0 0 0 0 0 0 0 0 0 0 0 0 0 0 0 0 0 0 0 0 0 0 0 0 0 0 0 0 0 0
-0 -0 0 0 0 0 0 0 0 0 0 0 0 0 0 0 0 0 0 0 0 0 0 0 0 0 0 0 0 0 0 0 0 0 0 0 0 0 0 0 0 0 0 0
-0 -0 -0 0 0 0 0 0 0 0 0 0 0 0 0 0 0 0 0 0 0 0 0 0 0 0 0 0 0 0 0 0 0 0 0 0 0 0 0 0 0 0 0 0
-0 -0 -0 0 0 0 0 0 0 0 0 0 0 0 0 0 0 0 0 0 0 0 0 0 0 0 0 0 0 0 0 0 0 0 0 0 0 0 0 0 0 0 0 0
Wind_Speed
7 5 4 7 8 9 10 9 11 12 11 18 8 9 10 9 9 9 7 6 6 4 3 3 4 5 5 5 6 6 6 7 8 8 9 9 10 10 10 11 12 12 13 14
6 3 3 7 10 9 10 8 10 11 19 13 3 2 6 10 12 10 8 7 6 5 4 4 4 4 5 5 5 5 6 7 8 9 9 9 10 10 10 10 11 11 11 13
6 5 6 10 9 11 9 10 11 11 12 2 3 6 9 12 13 10 8 7 7 6 5 4 4 3 4 5 5 5 6 6 7 8 9 9 10 10 10 9 10 11 11 11
3 7 6 7 1 7 7 9 11 11 11 6 6 3 4 7 12 10 10 9 8 6 5 4 3 2 3 4 4 5 6 6 7 7 8 9 9 9 9 7 8 7 9 11
1 3 12 10 3 5 5 11 10 13 14 2 4 2 3 6 9 10 10 8 7 6 5 4 3 2 2 3 4 5 5 6 6 6 7 7 8 9 7 7 6 7 8 9
4 2 9 8 2 4 2 9 8 9 8 8 8 3 7 10 10 9 8 7 7 6 5 4 3 2 2 3 4 5 5 6 6 6 6 7 7 7 6 7 7 9 10 9
5 6 15 7 5 5 3 10 4 8 9 13 13 8 3 12 10 9 8 7 7 6 6 5 4 3 2 3 4 5 5 5 6 6 6 6 6 5 7 8 9 8 9 9
7 6 15 7 10 12 14 4 4 6 8 12 9 5 8 12 12 12 9 8 7 7 6 5 4 4 3 4 5 5 5 5 6 6 6 6 6 7 7 7 8 8 7 8
14 13 6 12 14 11 4 6 7 7 8 10 10 9 11 11 11 11 11 9 7 7 6 5 5 5 4 4 4 4 5 5 6 7 6 6 6 7 7 6 6 7 6 7
8 16 10 12 13 10 8 9 7 8 9 14 11 13 13 13 12 11 11 10 8 8 7 6 5 5 5 4 4 4 5 5 5 6 6 6 6 5 6 7 7 7 6 7
10 13 9 10 16 17 12 10 7 8 10 15 14 14 15 14 14 12 12 10 9 9 9 8 6 5 5 4 3 4 5 5 5 5 6 6 6 5 7 6 9 10 6 6
13 12 9 10 6 7 10 13 13 11 9 10 13 16 15 14 13 12 12 11 9 9 9 7 6 6 5 4 4 4 4 4 4 4 5 5 6 8 12 12 16 17 16 15
14 7 8 9 4 6 9 10 12 15 14 13 11 13 16 12 13 12 12 12 12 11 10 8 7 6 5 4 4 4 5 5 4 4 4 5 6 7 9 11 14 15 18 20
12 4 8 9 9 8 8 6 8 9 9 11 12 13 14 11 12 14 14 13 11 9 8 8 7 7 6 5 4 4 4 6 5 3 4 4 5 6 6 8 9 8 12 19
15 15 15 8 3 4 5 7 8 10 10 10 9 13 16 15 16 15 12 11 10 9 9 8 9 8 6 5 5 5 4 3 4 3 3 3 4 5 5 7 8 8 8 11
10 11 12 11 12 8 8 10 12 14 14 14 13 14 15 14 13 12 12 13 12 13 12 11 10 8 6 6 5 3 3 6 5 3 3 3 4 4 5 6 7 7 8 9
10 12 11 12 15 14 15 15 16 15 16 17 17 15 13 12 11 12 13 13 11 10 10 11 10 7 7 6 5 3 3 3 6 3 3 3 3 3 4 5 6 7 7 10
19 21 17 14 12 14 16 16 15 15 16 16 14 15 17 18 18 16 14 12 9 7 9 9 8 7 7 6 5 3 3 2 2 2 3 3 3 3 4 4 5 6 6 8
20 21 19 16 13 12 13 16 16 15 14 15 18 19 18 17 15 14 13 13 13 13 12 10 16 11 8 9 8 4 4 3 2 2 2 4 4 3 4 4 5 6 6 7
19 18 17 15 12 12 13 12 13 14 15 17 17 16 16 14 14 15 15 14 14 9 8 12 13 10 9 8 10 4 4 4 3 2 2 2 3 3 4 4 5 5 5 6
17 16 16 16 14 13 13 14 16 17 17 19 20 20 18 16 15 15 15 13 12 9 9 15 11 9 8 9 11 5 5 4 4 3 2 2 3 3 3 4 5 6 6 6
18 17 18 16 14 13 12 13 15 16 17 18 17 16 16 16 16 14 13 9 10 17 12 9 9 13 14 13 6 6 6 5 4 4 3 3 3 3 3 4 4 5 5 6
15 15 14 13 13 10 10 12 15 17 19 20 20 20 19 17 16 16 14 10 9 18 13 9 14 20 21 11 7 7 7 6 5 4 4 3 3 3 3 4 4 5 5 5
9 7 6 5 8 11 14 14 13 12 13 14 15 16 16 14 12 11 6 17 20 20 12 15 22 23 21 8 8 7 7 6 6 5 4 4 3 3 3 3 4 4 5 6
4 3 4 7 10 10 10 10 11 10 11 9 11 12 12 11 11 12 10 14 22 20 11 16 24 23 14 8 9 8 7 7 7 6 5 4 4 4 3 3 3 4 5 5
4 5 6 7 6 5 7 10 11 11 12 12 11 12 10 7 8 10 10 12 16 19 13 10 12 16 10 10 9 9 8 7 7 7 6 5 5 4 4 4 4 4 4 5
3 3 4 5 5 6 7 9 10 12 13 13 13 12 13 12 11 11 13 12 12 12 11 10 10 10 10 10 9 8 8 7 7 6 6 5 5 4 4 5 4 4 4 5
Wind_Direction
258 258 236 239 220 188 194 203 215 246 253 272 271 227 208 175 164 163 171 177 176 187 227 260 282 295 302 308 320 329 331 332 328 325 323 325 328 329 333 338 340 335 337 339
290 218 259 263 238 209 216 219 237 265 275 271 304 170 160 165 172 178 184 183 183 193 214 238 266 290 304 312 319 327 329 327 325 329 330 332 331 335 338 338 335 335 337 338
285 306 323 277 229 184 204 209 197 226 252 224 236 212 193 183 182 183 180 178 182 193 210 226 246 273 291 304 315 326 326 324 326 326 331 333 336 337 336 331 331 333 332 336
303 351 272 251 104 171 206 239 213 239 258 224 230 215 201 179 179 178 175 175 180 187 201 213 227 262 286 308 324 325 324 323 321 324 325 327 332 333 327 321 326 325 323 331
102 308 285 294 218 176 200 276 220 226 254 176 108 58 267 203 181 175 171 168 175 184 191 194 212 253 294 316 323 324 322 319 316 316 319 324 330 326 319 319 318 322 323 327
137 215 259 261 157 169 111 284 245 204 218 156 144 203 250 179 163 154 152 152 165 175 181 191 205 221 267 304 312 312 310 309 308 312 318 315 318 315 314 316 320 330 328 325
172 225 262 250 152 145 192 252 232 190 185 169 191 207 179 148 148 149 147 155 164 173 187 196 194 195 242 280 287 293 301 306 310 314 312 309 316 311 316 322 326 320 319 319
158 197 253 194 148 189 219 221 188 194 186 187 189 138 144 153 154 154 155 159 168 178 194 198 190 189 234 263 276 294 304 309 311 310 311 321 317 309 312 314 315 311 309 315
191 215 230 177 202 219 208 208 208 202 193 169 160 170 163 164 162 163 166 170 174 182 192 201 196 193 227 254 284 302 308 309 308 308 307 308 304 302 308 307 307 307 309 317
244 261 243 221 239 244 217 219 215 195 175 169 174 172 168 167 169 170 172 177 177 182 194 205 204 207 223 255 281 294 299 301 304 306 307 310 309 305 304 303 304 302 309 315
246 268 287 253 229 237 230 221 211 188 181 181 171 171 172 173 176 177 178 178 183 192 201 204 200 213 226 240 264 283 291 293 302 307 305 308 311 303 305 296 315 335 325 313
230 225 210 250 222 204 205 211 200 183 182 182 178 176 172 176 175 175 176 176 186 196 202 201 198 213 224 228 238 264 286 296 297 300 307 312 312 317 325 333 336 342 343 343
233 238 219 252 237 190 205 209 191 187 182 181 180 175 171 170 173 173 176 181 190 196 199 195 197 211 219 220 234 249 266 281 285 300 307 313 317 322 325 329 335 342 346 345
243 259 278 251 231 209 204 193 176 182 182 176 169 169 170 161 166 176 183 186 187 188 191 193 199 213 212 210 230 251 264 282 293 289 294 303 310 315 321 327 329 331 338 343
230 219 231 252 225 179 165 149 165 184 177 171 166 169 170 171 177 183 179 172 175 186 195 197 205 214 202 202 223 242 257 268 274 280 293 301 307 312 321 327 328 329 330 336
218 223 235 244 236 198 177 184 193 197 187 180 178 181 181 177 173 168 167 171 177 194 199 200 209 207 191 196 217 233 250 284 303 314 318 316 312 316 325 331 332 333 335 329
208 228 221 232 230 208 202 202 205 198 188 187 187 177 167 160 161 170 178 184 190 195 194 198 204 195 189 193 201 215 232 276 305 322 312 305 302 314 320 325 329 331 330 329
221 232 225 220 219 208 209 207 205 195 190 188 172 166 170 175 181 182 180 176 182 197 206 202 195 186 188 191 196 201 209 229 256 277 291 296 308 322 318 316 319 324 326 334
228 235 239 233 220 201 201 202 202 196 182 170 172 179 183 184 180 171 166 171 187 206 211 197 200 193 193 202 199 189 195 214 239 260 281 307 329 320 313 313 316 319 325 338
235 235 239 238 216 203 202 189 183 183 178 173 175 178 181 180 171 166 171 186 199 198 173 180 194 192 190 201 199 175 188 203 216 235 263 285 298 303 308 313 316 315 324 333
234 232 231 229 219 205 193 179 177 181 177 176 180 183 181 176 171 169 176 197 203 177 172 188 187 187 186 194 198 178 187 196 203 210 231 263 285 297 306 312 317 321 327 331
228 228 228 222 208 200 186 177 177 175 174 180 183 177 172 172 174 180 194 196 175 181 180 186 181 188 190 192 179 177 186 192 196 199 210 230 254 277 295 306 310 315 321 320
231 228 222 209 199 183 166 175 178 176 180 182 182 181 180 177 177 181 194 192 167 182 178 184 189 192 192 186 175 181 186 191 195 198 204 214 229 249 271 290 298 306 308 309
265 250 225 178 154 163 183 187 180 179 180 181 185 182 176 172 184 195 172 171 179 183 181 188 191 193 190 175 175 182 187 191 193 195 200 209 219 232 249 268 283 292 298 305
257 220 177 175 190 200 189 167 164 165 169 178 181 182 184 181 177 179 168 170 179 180 177 190 191 193 187 171 179 183 185 191 191 191 199 205 213 222 235 251 266 282 293 297
203 195 197 204 207 187 171 173 179 178 178 180 183 183 184 175 159 160 166 171 176 179 173 178 184 191 179 177 182 182 184 196 207 197 192 198 207 214 225 239 260 268 280 288
207 198 194 202 199 185 179 185 188 186 184 181 177 177 178 175 169 166 168 170 175 178 173 175 179 179 176 178 180 180 181 185 192 192 191 197 202 208 216 228 241 257 272 283